Regional Weather Roundup
Issued by NWS

Home | Current Version | Previous Version | Graphics & Text | Print | Product List | Glossary On
Versions: 1 2 3 4 5 6 7 8 9 10 11 12 13 14 15 16 17 18 19 20 21 22 23 24 25 26 27 28 29 30 31 32 33 34 35 36 37 38 39 40 41 42 43 44 45 46 47 48 49 50
000
ASUS43 KDTX 041201
RWRMI
MICHIGAN HOURLY REGIONAL WEATHER ROUNDUP
NATIONAL WEATHER SERVICE DETROIT/PONTIAC MI
800 AM EDT SAT JUL 04 2015

NOTE: "FAIR" INDICATES FEW OR NO CLOUDS BELOW 12,000 FEET WITH NO
SIGNIFICANT WEATHER AND/OR OBSTRUCTION TO VISIBILITY.

MIZ047>049-052>055-059>063-066>070-074>076-081>083-041300-
SOUTHEAST LOWER MICHIGAN

CITY           SKY/WX    TMP DP  RH WIND       PRES   REMARKS
ADRIAN         SUNNY     59  55  87 CALM      29.98R
6HR MIN TEMP:  53; 6HR MAX TEMP:  59;

ALMA           MOSUNNY   56  55  97 CALM      29.97R
ANN ARBOR      SUNNY     58  57  97 CALM      29.97R
BAD AXE        SUNNY     57  55  92 CALM      29.97R
CARO           MOSUNNY   53  51  95 CALM      29.97R
DETROIT CITY   SUNNY     62  53  72 NW3       29.96R
6HR MIN TEMP:  56; 6HR MAX TEMP:  62;

DETROIT        MOSUNNY   62  54  74 W3        29.97R
6HR MIN TEMP:  57; 6HR MAX TEMP:  62;

FLINT          SUNNY     57  52  83 CALM      29.97R
6HR MIN TEMP:  51; 6HR MAX TEMP:  57;

GROSSE ILE     SUNNY     63  55  77 NW6       29.95S
HILLSDALE      SUNNY     60  60  99 CALM      29.98S
6HR MIN TEMP:  54; 6HR MAX TEMP:  60;

HOWELL         SUNNY     56  55  96 CALM      29.98R
6HR MIN TEMP:  50; 6HR MAX TEMP:  56;


CITY           SKY/WX    TMP DP  RH WIND       PRES   REMARKS
JACKSON        SUNNY     57  55  93 CALM      29.98R
6HR MIN TEMP:  51; 6HR MAX TEMP:  57;

LAMBERTVILLE   SUNNY     60  56  87 CALM      29.98R
6HR MIN TEMP:  54; 6HR MAX TEMP:  60;

LANSING        SUNNY     57  54  89 CALM      29.98R
6HR MIN TEMP:  52; 6HR MAX TEMP:  57;

LAPEER         FAIR      53  51  95 CALM      29.98R
MASON          SUNNY     54  53  98 CALM      29.98R FOG
MONROE         SUNNY     60  56  87 CALM      29.96R
6HR MIN TEMP:  53; 6HR MAX TEMP:  60;

MT. CLEMENS    SUNNY     60  56  86 NW2       29.94R
6HR MIN TEMP:  54; 6HR MAX TEMP:  60;

PONTIAC        SUNNY     59  53  80 W5        29.97R
6HR MIN TEMP:  51; 6HR MAX TEMP:  59;

PORT HOPE        N/A     62  54  74 SW5       29.94R
6HR MIN TEMP:  58; 6HR MAX TEMP:  62;

PORT HURON     SUNNY     55  55 100 CALM      29.97R
TRI CITIES     PTSUNNY   60  52  74 SW3       29.98R
6HR MIN TEMP:  56; 6HR MAX TEMP:  62;

MIDLAND        FAIR      56  53  89 CALM      29.96R
TROY           SUNNY     62  54  75 NW5       29.98R
SAGINAW HB     MOSUNNY   59  54  82 CALM      29.96R
$$
MIZ043>046-050>051-056>058-064>065-071>073-077>080-041300-
SOUTHWEST LOWER MICHIGAN

CITY           SKY/WX    TMP DP  RH WIND       PRES   REMARKS
BATTLE CREEK   SUNNY     59  55  87 CALM      29.99R
6HR MIN TEMP:  54; 6HR MAX TEMP:  60;

BENTON HARBOR  SUNNY     55  53  93 CALM      29.99R FOG
6HR MIN TEMP:  49; 6HR MAX TEMP:  55;

BIG RAPIDS     SUNNY     55  51  87 CALM      29.97S
6HR MIN TEMP:  51; 6HR MAX TEMP:  55;

COLDWATER      SUNNY     57  56  98 CALM      29.99R FOG
6HR MIN TEMP:  53; 6HR MAX TEMP:  57;

FREMONT        FAIR      56  54  92 CALM      29.97S
HOLLAND        MOSUNNY   57  54  89 CALM      29.98R
6HR MIN TEMP:  52; 6HR MAX TEMP:  57;

GRAND RAPIDS   CLOUDY    58  53  84 CALM      29.99R HAZE
6HR MIN TEMP:  54; 6HR MAX TEMP:  61;

IONIA          FAIR      58  55  91 CALM      29.98R
KALAMAZOO      SUNNY     59  54  83 CALM      30.00R
6HR MIN TEMP:  54; 6HR MAX TEMP:  59;

LUDINGTON      SUNNY     64  55  73 SW5       29.96R
6HR MIN TEMP:  53; 6HR MAX TEMP:  64;

MARSHALL       SUNNY     57  56  94 CALM      29.98R
MOUNT PLEASANT MOSUNNY   57  55  91 CALM      29.96S
6HR MIN TEMP:  51; 6HR MAX TEMP:  57;

MUSKEGON       PTSUNNY   58  53  84 CALM      29.98R
6HR MIN TEMP:  52; 6HR MAX TEMP:  58;

SOUTH HAVEN    SUNNY     55  54  95 CALM      29.99R FOG
$$
MIZ016>042-041300-
NORTHERN LOWER MICHIGAN

CITY           SKY/WX    TMP DP  RH WIND       PRES   REMARKS
ALPENA         PTSUNNY   63  54  72 SW5       29.95R
6HR MIN TEMP:  55; 6HR MAX TEMP:  63;

BEAVER ISLAND  SUNNY     57  53  86 CALM      29.95R
6HR MIN TEMP:  50; 6HR MAX TEMP:  58;

BELLAIRE       SUNNY     60  50  70 CALM      29.95R
6HR MIN TEMP:  53; 6HR MAX TEMP:  60;

CADILLAC       SUNNY     57  52  82 SW3       29.97R
CHARLEVOIX     SUNNY     61  54  78 W5        29.97R
6HR MIN TEMP:  55; 6HR MAX TEMP:  64;

FRANKFORT      SUNNY     65  51  61 CALM      29.95R
GAYLORD        SUNNY     59  50  72 SW5       29.96R
6HR MIN TEMP:  54; 6HR MAX TEMP:  61;

GRAYLING       SUNNY     58  51  76 CALM      29.97R
6HR MIN TEMP:  52; 6HR MAX TEMP:  58;

HARBOR SPRINGS SUNNY     60  54  80 W5        29.94S
HOUGHTON LAKE  MOSUNNY   63  51  65 SW6       29.97R
6HR MIN TEMP:  56; 6HR MAX TEMP:  63;

MANISTEE       SUNNY     55  50  82 CALM      29.97R
OSCODA         MOSUNNY   62  54  75 CALM      29.94S
PELLSTON       SUNNY     61  53  75 W3        29.94R
6HR MIN TEMP:  50; 6HR MAX TEMP:  61;

ROGERS CITY    PTSUNNY   61  55  79 SW3       29.94R
TRAVERSE CITY  MOSUNNY   64  50  60 CALM      29.93R
6HR MIN TEMP:  61; 6HR MAX TEMP:  65;

$$
MIZ007>008-015-041300-
EASTERN UPPER MICHIGAN

CITY           SKY/WX    TMP DP  RH WIND       PRES   REMARKS
KINROSS        MOSUNNY   55  55 100 NW6       29.94R
6HR MIN TEMP:  52; 6HR MAX TEMP:  57;

MACKINAC ISLAN SUNNY     59  57  94 W5        29.94R
6HR MIN TEMP:  55; 6HR MAX TEMP:  59;

NEWBERRY       FOG       53  53 100 N3        29.95R VSB<1/4
S. S. MARIE    CLOUDY    55  53  93 NW3       29.93R FOG
6HR MIN TEMP:  50; 6HR MAX TEMP:  56;

$$
MIZ004>006-011>014-085-041300-
CENTRAL UPPER MICHIGAN

CITY           SKY/WX    TMP DP  RH WIND       PRES   REMARKS
MANISTIQUE     SUNNY     56  55  97 N6        29.95R FOG
ESCANABA       SUNNY     61  57  88 N3        29.95R
6HR MIN TEMP:  54; 6HR MAX TEMP:  61;

MENOMINEE      SUNNY     61  55  82 N3        29.95R
6HR MIN TEMP:  57; 6HR MAX TEMP:  63;

SAWYER-GWINN   SUNNY     55  54  94 CALM      29.97R FOG
$$
MIZ001>003-009>011-084-041300-
WESTERN UPPER MICHIGAN

CITY           SKY/WX    TMP DP  RH WIND       PRES   REMARKS
IRON MOUNTAIN  SUNNY     59  57  93 NW3       29.96R FOG
6HR MIN TEMP:  54; 6HR MAX TEMP:  61;

HOUGHTON       SUNNY     58  55  90 CALM      29.97R
6HR MIN TEMP:  51; 6HR MAX TEMP:  61;

COPPER HARBOR    N/A     50  49  96 CALM      29.97R
6HR MIN TEMP:  50; 6HR MAX TEMP:  58;

IRONWOOD       SUNNY     54  54 100 CALM      29.95R
6HR MIN TEMP:  50; 6HR MAX TEMP:  57;

$$

ABBREVIATIONS USED IN REMARKS
   TC - TEMPERATURE IN CELSIUS
  WCI - WIND CHILL INDEX
   HX - HEAT INDEX
  VSB - VISIBILITY




USA.gov is the U.S. government's official web portal to all federal, state and local government web resources and services.